www.pogodaiklimat.ru

Погода и климат >> Архив погоды >> Южная Африка >> Плеттенберг-Бей


ПОГОДА в Плеттенберг-Бей

  • Прогноз погоды в Плеттенберг-Бей
  • Монитор погоды в Плеттенберг-Бей

АРХИВ ПОГОДЫ в Плеттенберг-Бей

Время (UTC), дата Ветер
(напр.,м/с)
 
Видим.   Явления Облачность Т
(С)
Тd
(С)
f
(%)
Тe
(С)
Тes
(С)
Комфортность P
(гПа)
Po
(гПа)
Тmin
(С)
Tmax
(С)
R
(мм)
R24
(мм)
S
(см)
21 16.08 СЗ 4 н/о н/о +15.2 +11.0 76 +14 +14 1028.4 1011.8 +14.1 +17.7
00 17.08 З 3 н/о н/о +14.9 +12.7 87 +14 +14 1029.5 1012.9 +14.1 +17.7
03 17.08 СВ 3 н/о н/о +13.2 +12.5 96 +12 +12 1029.5 1012.8 +13.1 +17.7
06 17.08 В 4 н/о н/о +13.2 +12.7 97 +12 +12 1030.4 1013.6 +13.0 9
09 17.08 В 6 н/о н/о +14.8 +12.3 85 +13 +13 1029.6 1012.9 +13.0 +14.8
12 17.08 В 6 н/о н/о +16.6 +12.4 76 +15 +15 1025.8 1009.3 +13.0 +16.9 1
15 17.08 В 7 н/о н/о +15.9 +12.4 80 +14 +14 1024.1 1007.6 +15.9 +17.0
18 17.08 В 7 н/о н/о +15.2 +12.5 84 +13 +13 1023.2 1006.7 +15.2 +17.0 1
21 17.08 В 7 н/о н/о +15.2 +12.1 82 +13 +13 1021.1 1004.6 +15.1 +17.0
00 18.08 СВ 2 н/о н/о +13.3 +11.2 87 +13 +13 1018.5 1001.9 +13.3 +17.0 1
03 18.08 СВ 2 н/о н/о +14.3 +12.0 86 +14 +14 1016.0 999.5 +13.2 +17.0
06 18.08 С 3 н/о н/о +14.7 +11.5 81 +14 +14 1014.3 997.9 +13.2 1
09 18.08 СВ 3 н/о н/о +21.7 +13.7 60 +24 +24 комфорт 1013.7 997.7 +13.2 +21.7
12 18.08 ЮЗ 6 н/о н/о +23.9 +9.6 40 +25 +25 комфорт 1013.0 997.1 +13.2 +24.3
15 18.08 З 5 н/о н/о +19.2 +12.5 65 +20 +20 1014.3 998.1 +19.2 +24.3
18 18.08 З 5 н/о н/о +16.2 +13.3 83 +15 +15 1019.7 1003.3 +16.2 +24.3
21 18.08 З 5 н/о н/о +15.9 +12.3 79 +15 +15 1021.4 1004.9 +15.9 +24.3
00 19.08 З 4 н/о н/о +15.1 +10.3 73 +14 +14 1022.5 1006.0 +15.1 +24.3
03 19.08 З 4 н/о н/о +14.6 +9.2 70 +14 +14 1024.4 1007.8 +14.2 +24.3
06 19.08 З 4 н/о н/о +13.4 +10.9 85 +12 +12 1027.3 1010.6 +13.3 0.4
09 19.08 З 8 н/о н/о +16.1 +8.4 60 +15 +15 1029.5 1012.9 +13.3 +16.5
12 19.08 З 8 н/о н/о +17.1 +8.0 55 +16 +16 1029.1 1012.6 +13.3 +17.3
15 19.08 ЮЗ 5 н/о н/о +15.9 +8.2 60 +15 +15 1029.9 1013.3 +15.9 +17.5
18 19.08 З 3 н/о н/о +14.0 +8.2 68 +13 +13 1032.5 1015.8 +13.8 +17.5
21 19.08 СЗ 4 н/о н/о +12.7 +7.8 72 +11 +11 1033.8 1017.0 +12.2 +17.5
00 20.08 СЗ 3 н/о н/о +12.3 +8.2 76 +11 +11 1033.9 1017.0 +12.2 +17.5
09 20.08 ЮЗ 3 н/о н/о +17.0 +9.7 62 +17 +17 1032.7 1016.1 +11.0 +18.3
12 20.08 ЮЗ 3 н/о н/о +17.6 +11.0 65 +18 +18 1031.5 1015.0 +11.0 +18.3
15 20.08 Ю 1 н/о н/о +16.4 +10.9 70 +17 +17 1031.2 1014.6 +16.4 +18.3
18 20.08 штиль 0 н/о н/о +13.6 +10.9 84 +13 +13 1031.9 1015.1 +13.0 +18.3
21 20.08 С 2 н/о н/о +12.7 +10.2 85 +12 +12 1031.8 1015.0 +12.6 +18.3
00 21.08 С 2 н/о н/о +11.9 +9.8 87 +11 +11 1031.5 1014.6 +11.9 +18.3
03 21.08 С 3 н/о н/о +11.5 +9.7 89 +10 +10 1029.1 1012.3 +11.4 +18.3
06 21.08 С 2 н/о н/о +14.0 +11.8 87 +14 +14 1028.8 1012.1 +11.1
09 21.08 СВ 3 н/о н/о +21.1 +10.1 49 +23 +23 комфорт 1027.0 1010.7 +11.1 +21.1
12 21.08 В 2 н/о н/о +21.5 +11.6 53 +24 +24 комфорт 1023.9 1007.7 +11.1 +23.3
15 21.08 СВ 3 н/о н/о +19.5 +10.3 55 +21 +21 комфорт 1022.9 1006.6 +19.5 +23.3
18 21.08 С 4 н/о н/о +18.0 +4.6 41 +18 +18 1022.1 1005.8 +16.3 +23.3
21 21.08 С 3 н/о н/о +19.0 +6.9 45 +20 +20 1021.7 1005.4 +16.3 +23.3
00 22.08 С 2 н/о н/о +18.4 +2.4 34 +19 +19 1020.7 1004.4 +16.3 +23.3
03 22.08 З 3 н/о н/о +19.8 +0.9 28 +20 +20 1019.5 1003.3 +16.3 +23.3
06 22.08 ЮЗ 2 н/о н/о +20.0 +2.9 32 +21 +21 комфорт 1020.5 1004.3 +16.3
09 22.08 ЮЗ 4 н/о н/о +26.2 +3.0 22 +25 +25 комфорт 1021.0 1005.1 +16.3 +26.6
12 22.08 ЮЗ 6 н/о н/о +23.2 +5.8 32 +24 +24 комфорт 1020.9 1004.9 +16.3 +26.6
15 22.08 ЮЗ 4 н/о н/о +18.7 +13.4 71 +19 +19 1023.6 1007.3 +18.7 +26.6
18 22.08 З 4 н/о н/о +16.5 +14.5 88 +16 +16 1024.4 1007.9 +16.5 +26.6
21 22.08 З 3 н/о н/о +14.1 +12.8 92 +13 +13 1026.2 1009.6 +14.0 +26.6
00 23.08 З 2 н/о н/о +13.9 +12.6 92 +14 +14 1025.6 1009.0 +13.2 +26.6
03 23.08 СЗ 2 н/о н/о +12.7 +11.9 95 +12 +12 1025.6 1008.9 +12.2 +26.6
06 23.08 С 2 н/о н/о +14.3 +13.5 95 +14 +14 1025.8 1009.2 +12.2
09 23.08 В 3 н/о н/о +18.6 +14.1 75 +20 +20 1026.2 1009.8 +12.2 +18.8
12 23.08 Ю 3 н/о н/о +19.7 +15.2 75 +22 +22 комфорт 1024.9 1008.6 +12.2 +20.6
15 23.08 В 3 н/о н/о +18.3 +15.4 83 +19 +19 1024.3 1007.9 +18.3 +20.6

 

Местоположение метеостанции Плеттенберг-Бей (Южная Африка): широта -34.09 долгота 23.33 высота над уровнем моря 139 м.

В архиве по умолчанию представлена погода в Плеттенберг-Бей за последнюю неделю. Архивные данные за месяц целиком и за предыдущие месяцы, начиная с января 2011 года, Вы можете получить, выбрав интересующий диапазон дат из раскрывающегося списка и нажав кнопку "Ввод!".


*Определитесь, кто Вы:
робот инопланетянин человек

Внимание! Время в таблицах - всемирное. Для получения местного времени необходимо прибавить поправку, которая равна 2 ч.

Смотрите также архив погоды в соседних городах и на ближайших метеорологических станциях:

Погода в Найсне (Южная Африка) (23 км)
Погода в Парке Tsitsikamma (Южная Африка) (54 км)
Погода в Джоубертине (Южная Африка) (56 км)
Погода в Аэропорту Джордж (Южная Африка) (88 км)
Погода в Уиллоуморе (Южная Африка) (91 км)
Погода на Мысе Mossel Bay (Южная Африка) (109 км)
Погода на Мысе St. Francis (Южная Африка) (141 км)
Погода в Патенсие (Южная Африка) (142 км)
Погода в Принс Альберт (Южная Африка) (154 км)
Погода в Стилбай (Южная Африка) (180 км)

Пояснения к столбцам:

Ветер - указаны скорость ветра в м/с - средняя за 10 мин, порывы в срок и между сроками (в фигурных скобках) и направление, откуда дует ветер: С - северный, СВ - северо-восточный, В - восточный, ЮВ - юго-восточный, Ю - южный, ЮЗ - юго-западный, З - западный, СЗ - северо-западный.
Видимость - горизонтальная дальность видимости в метрах или километрах. При видимости от 1 до 10 км при отсутствии осадков обычно наблюдается дымка, при ухудшении видимости до 1 км и менее - туман. В сухую погоду видимость может ухудшаться дымом, пылью или мглою.
Явления - указаны атмосферные явления, наблюдавшиеся в срок или в последний час перед сроком; фигурными скобками обозначены явления, наблюдавшиеся между сроками (за 1-3 часа до срока); квадратными скобками обозначены град или гололедные отложения с указанием их диаметра в мм.
Облачность - указаны через наклонную черту общая и нижняя облачность в баллах и высота нижней границы облаков в метрах; квадратными скобками обозначены формы облаков: Ci - перистые, Cs - перисто-слоистые, Cc - перисто-кучевые, Ac - высококучевые, As - высокослоистые, Sc - слоисто-кучевые, Ns - слоисто-дождевые, Cu - кучевые, Cb - кучево-дождевые. Подробнее классификацию облаков см. в Атласе облаков (PDF).
T - Температура воздуха - температура, измеренная на высоте 2 м над землей.
Td - Температура точки росы - температура, при понижении до которой содержащийся в воздухе водяной пар достигнет насыщения.
f - Относительная влажность воздуха - влажноcть воздуха, измеренная на высоте 2 м над землей.
Te - Эффективная температура - температура, которую ощущает одетый по сезону человек в тени. Характеристика душности погоды. При расчете учитывается влияние влажности воздуха и скорости ветра на теплоощущения человека.
Tes - Эффективная температура на солнце - температура, которую ощущает человек, с поправкой на солнечный нагрев. Характеристика знойности погоды. Зависит от высоты солнца над горизонтом, облачности и скорости ветра. Ночью, в пасмурную погоду, а также при ветре 12 м/с и более поправка равна нулю.
P - Атмосферное давление - приведенное к уровню моря атмосферное давление.
Po - Атмосферное давление - измеренное на уровне метеостанции атмосферное давление.
Tmin - Минимальная температура - минимум температуры воздуха на высоте 2 м над землей.
Tmax - Максимальная температура - максимум температуры воздуха на высоте 2 м над землей.
R - Количество осадков - Количество выпавших осадков за период времени, мм. При наведении курсора мыши на число - период времени, за который выпало указанное количество осадков.
R24 - Количество осадков - Количество выпавших осадков за 24 часа, мм.
S - Снежный покров - Высота снежного покрова, см. При наведении курсора мыши на число - состояние снежного покрова и степень покрытия местности в баллах.